KOMPSAT 5

Satellite information

Favourite Embed

Satellite Type and Status

PAYLOADIN ORBIT

Key statistics

Satellite KOMPSAT 5 at a glance.

Uptime

4338

Days in orbit

Revolutions

≈ 15.0

Per day

Orbit

SSO

Sun Synchronous Orbit

Inclination

97.6

Latest

Satellite identification and parameters

Extended collection of information and parameters for KOMPSAT 5.

Object identification

Identified? True

Debris? False

Object name: KOMPSAT 5

International designator: 2013-042A

Object number (NORAD): 39227

Object ID (CCSDS): 39227

Country: SOUTH KOREA (SKOR)

Current information (Y/N): Y

RCS size: LARGE

Orbital parameters

Period: 95.71 minutes

Inclination: 97.6205 deg

SMA: 6931.043 km

Apoapsis: 553.785 km

Periapsis: 552.031 km

RAAN: 15.4223 deg

Eccentricy: 0.0001265

Argument of periapsis: 192.7379 deg

Mean anomaly: 167.3815 deg

Mean motion: 15.04543982 rev/day

Mean motion (dot): 0.00001308 rev/day2

B* drag term: 0.000097629 1/REarth

Two-line elements (TLE)

Creation date: July 8, 2025, 2:27 a.m.

Reference frame: TEME

Reference center: EARTH

Epoch: July 7, 2025, 10:02 p.m. UTC

TLE line 0: 0 KOMPSAT 5

TLE line 1: 1 39227U 13042A 25188.91857054 .00001308 00000-0 97629-4 0 9995

TLE line 2: 2 39227 97.6205 15.4223 0001265 192.7379 167.3815 15.04543982652097

Live tracking on map

Real-time ground track for satellite KOMPSAT 5.

In-orbit conjunctions

There are no conjunctions computed for KOMPSAT 5, at the moment. Check back to stay up to date, as we update our databases every day.

Go to all conjunctions

Associated space launch

KOMPSAT 5 was lifted into orbit during the mission ‘Dnepr 1 | KOMPSat-5 (Arirang-5)’, on board a Dnepr space rocket.

The launch took place on Aug. 22, 2013, 2:39 p.m. from 370/13.

For more information about the launch, click the button.

Launch to space Dnepr 1 | KOMPSat-5 (Arirang-5)
Dnepr 1 | KOMPSat-5 (Arirang-5)

Agency: N/A

Status: Launch Successful

Launch date: Aug. 22, 2013, 2:39 p.m. UTC

Rocket: Dnepr

Launch pad: 370/13

Location: Dombarovskiy, Russian Federation

...

Latest news about this satellite

There are no fresh news available about this satellite. Check back as we update our databases every day.


Newsletter sign-up

Weekly statistics, charts and insights to help you stay on top of the space industry.